Year,Month,Day,Hour,Minute,Value (Times are PST for temperature in C)
2018,10,20,00,00,8.90
2018,10,20,00,01,8.90
2018,10,20,00,02,8.90
2018,10,20,00,03,8.90
2018,10,20,00,04,8.90
2018,10,20,00,05,8.90
2018,10,20,00,06,9.00
2018,10,20,00,07,9.00
2018,10,20,00,08,9.00
2018,10,20,00,09,9.00
2018,10,20,00,10,9.00
2018,10,20,00,11,9.00
2018,10,20,00,12,9.00
2018,10,20,00,13,8.90
2018,10,20,00,14,8.90
2018,10,20,00,15,8.90
2018,10,20,00,16,8.90
2018,10,20,00,17,8.90
2018,10,20,00,18,8.90
2018,10,20,00,19,8.90
2018,10,20,00,20,8.90
2018,10,20,00,21,8.90
2018,10,20,00,22,8.90
2018,10,20,00,23,8.90
2018,10,20,00,24,8.90
2018,10,20,00,25,8.90
2018,10,20,00,26,8.80
2018,10,20,00,27,8.80
2018,10,20,00,28,8.80
2018,10,20,00,29,8.80
2018,10,20,00,30,8.80
2018,10,20,00,31,8.80
2018,10,20,00,32,8.80
2018,10,20,00,33,8.80
2018,10,20,00,34,8.80
2018,10,20,00,35,8.80
2018,10,20,00,36,8.80
2018,10,20,00,37,8.70
2018,10,20,00,38,8.70
2018,10,20,00,39,8.70
2018,10,20,00,40,8.70
2018,10,20,00,41,8.70
2018,10,20,00,42,8.70
2018,10,20,00,43,8.70
2018,10,20,00,44,8.70
2018,10,20,00,45,8.70
2018,10,20,00,46,8.70
2018,10,20,00,47,8.70
2018,10,20,00,48,8.70
2018,10,20,00,49,8.70
2018,10,20,00,50,8.70
2018,10,20,00,51,8.70
2018,10,20,00,52,8.70
2018,10,20,00,53,8.70
2018,10,20,00,54,8.70
2018,10,20,00,55,8.70
2018,10,20,00,56,8.70
2018,10,20,00,57,8.70
2018,10,20,00,58,8.70
2018,10,20,00,59,8.70
2018,10,20,01,00,8.70
2018,10,20,01,01,8.70
2018,10,20,01,02,8.70
2018,10,20,01,03,8.70
2018,10,20,01,04,8.70
2018,10,20,01,05,8.70
2018,10,20,01,06,8.70
2018,10,20,01,07,8.70
2018,10,20,01,08,8.70
2018,10,20,01,09,8.70
2018,10,20,01,10,8.70
2018,10,20,01,11,8.70
2018,10,20,01,12,8.60
2018,10,20,01,13,8.60
2018,10,20,01,14,8.60
2018,10,20,01,15,8.60
2018,10,20,01,16,8.60
2018,10,20,01,17,8.60
2018,10,20,01,18,8.60
2018,10,20,01,19,8.60
2018,10,20,01,20,8.60
2018,10,20,01,21,8.60
2018,10,20,01,22,8.70
2018,10,20,01,23,8.70
2018,10,20,01,24,8.70
2018,10,20,01,25,8.70
2018,10,20,01,26,8.70
2018,10,20,01,27,8.70
2018,10,20,01,28,8.80
2018,10,20,01,29,8.80
2018,10,20,01,30,8.80
2018,10,20,01,31,8.80
2018,10,20,01,32,8.90
2018,10,20,01,33,8.90
2018,10,20,01,34,8.90
2018,10,20,01,35,8.90
2018,10,20,01,36,8.90
2018,10,20,01,37,8.90
2018,10,20,01,38,8.90
2018,10,20,01,39,8.90
2018,10,20,01,40,8.90
2018,10,20,01,41,8.90
2018,10,20,01,42,8.90
2018,10,20,01,43,8.90
2018,10,20,01,44,8.90
2018,10,20,01,45,8.90
2018,10,20,01,46,8.90
2018,10,20,01,47,8.90
2018,10,20,01,48,8.90
2018,10,20,01,49,8.90
2018,10,20,01,50,8.90
2018,10,20,01,51,8.90
2018,10,20,01,52,8.90
2018,10,20,01,53,8.90
2018,10,20,01,54,8.90
2018,10,20,01,55,8.90
2018,10,20,01,56,8.90
2018,10,20,01,57,8.90
2018,10,20,01,58,8.80
2018,10,20,01,59,8.80
2018,10,20,02,00,8.80
2018,10,20,02,01,8.80
2018,10,20,02,02,8.80
2018,10,20,02,03,8.70
2018,10,20,02,04,8.70
2018,10,20,02,05,8.70
2018,10,20,02,06,8.70
2018,10,20,02,07,8.60
2018,10,20,02,08,8.60
2018,10,20,02,09,8.60
2018,10,20,02,10,8.50
2018,10,20,02,11,8.50
2018,10,20,02,12,8.40
2018,10,20,02,13,8.40
2018,10,20,02,14,8.40
2018,10,20,02,15,8.30
2018,10,20,02,16,8.30
2018,10,20,02,17,8.30
2018,10,20,02,18,8.20
2018,10,20,02,19,8.20
2018,10,20,02,20,8.20
2018,10,20,02,21,8.10
2018,10,20,02,22,8.10
2018,10,20,02,23,8.10
2018,10,20,02,24,8.10
2018,10,20,02,25,8.00
2018,10,20,02,26,8.00
2018,10,20,02,27,8.00
2018,10,20,02,28,7.90
2018,10,20,02,29,7.90
2018,10,20,02,30,7.90
2018,10,20,02,31,7.90
2018,10,20,02,32,7.80
2018,10,20,02,33,7.80
2018,10,20,02,34,7.80
2018,10,20,02,35,7.70
2018,10,20,02,36,7.70
2018,10,20,02,37,7.70
2018,10,20,02,38,7.70
2018,10,20,02,39,7.60
2018,10,20,02,40,7.60
2018,10,20,02,41,7.60
2018,10,20,02,42,7.60
2018,10,20,02,43,7.60
2018,10,20,02,44,7.60
2018,10,20,02,45,7.60
2018,10,20,02,46,7.50
2018,10,20,02,47,7.50
2018,10,20,02,48,7.50
2018,10,20,02,49,7.50
2018,10,20,02,50,7.50
2018,10,20,02,51,7.50
2018,10,20,02,52,7.50
2018,10,20,02,53,7.50
2018,10,20,02,54,7.50
2018,10,20,02,55,7.50
2018,10,20,02,56,7.40
2018,10,20,02,57,7.40
2018,10,20,02,58,7.40
2018,10,20,02,59,7.40
2018,10,20,03,00,7.40
2018,10,20,03,01,7.40
2018,10,20,03,02,7.40
2018,10,20,03,03,7.40
2018,10,20,03,04,7.40
2018,10,20,03,05,7.40
2018,10,20,03,06,7.50
2018,10,20,03,07,7.50
2018,10,20,03,08,7.60
2018,10,20,03,09,7.60
2018,10,20,03,10,7.70
2018,10,20,03,11,7.70
2018,10,20,03,12,7.70
2018,10,20,03,13,7.70
2018,10,20,03,14,7.70
2018,10,20,03,15,7.70
2018,10,20,03,16,7.70
2018,10,20,03,17,7.70
2018,10,20,03,18,7.70
2018,10,20,03,19,7.70
2018,10,20,03,20,7.70
2018,10,20,03,21,7.70
2018,10,20,03,22,7.70
2018,10,20,03,23,7.70
2018,10,20,03,24,7.70
2018,10,20,03,25,7.70
2018,10,20,03,26,7.70
2018,10,20,03,27,7.70
2018,10,20,03,28,7.70
2018,10,20,03,29,7.70
2018,10,20,03,30,7.70
2018,10,20,03,31,7.60
2018,10,20,03,32,7.60
2018,10,20,03,33,7.60
2018,10,20,03,34,7.50
2018,10,20,03,35,7.40
2018,10,20,03,36,7.30
2018,10,20,03,37,7.30
2018,10,20,03,38,7.20
2018,10,20,03,39,7.20
2018,10,20,03,40,7.10
2018,10,20,03,41,7.10
2018,10,20,03,42,7.10
2018,10,20,03,43,7.00
2018,10,20,03,44,7.00
2018,10,20,03,45,7.00
2018,10,20,03,46,7.00
2018,10,20,03,47,6.90
2018,10,20,03,48,6.90
2018,10,20,03,49,6.90
2018,10,20,03,50,6.90
2018,10,20,03,51,6.90
2018,10,20,03,52,6.90
2018,10,20,03,53,7.00
2018,10,20,03,54,7.00
2018,10,20,03,55,7.10
2018,10,20,03,56,7.10
2018,10,20,03,57,7.10
2018,10,20,03,58,7.10
2018,10,20,03,59,7.20
2018,10,20,04,00,7.20
2018,10,20,04,01,7.20
2018,10,20,04,02,7.20
2018,10,20,04,03,7.20
2018,10,20,04,04,7.20
2018,10,20,04,05,7.20
2018,10,20,04,06,7.10
2018,10,20,04,07,7.20
2018,10,20,04,08,7.20
2018,10,20,04,09,7.10
2018,10,20,04,10,7.10
2018,10,20,04,11,7.10
2018,10,20,04,12,7.10
2018,10,20,04,13,7.10
2018,10,20,04,14,7.10
2018,10,20,04,15,7.10
2018,10,20,04,16,7.10
2018,10,20,04,17,7.10
2018,10,20,04,18,7.10
2018,10,20,04,19,7.10
2018,10,20,04,20,7.10
2018,10,20,04,21,7.10
2018,10,20,04,22,7.10
2018,10,20,04,23,7.20
2018,10,20,04,24,7.20
2018,10,20,04,25,7.20
2018,10,20,04,26,7.20
2018,10,20,04,27,7.20
2018,10,20,04,28,7.20
2018,10,20,04,29,7.30
2018,10,20,04,30,7.30
2018,10,20,04,31,7.30
2018,10,20,04,32,7.30
2018,10,20,04,33,7.30
2018,10,20,04,34,7.30
2018,10,20,04,35,7.30
2018,10,20,04,36,7.30
2018,10,20,04,37,7.30
2018,10,20,04,38,7.40
2018,10,20,04,39,7.40
2018,10,20,04,40,7.40
2018,10,20,04,41,7.40
2018,10,20,04,42,7.40
2018,10,20,04,43,7.40
2018,10,20,04,44,7.40
2018,10,20,04,45,7.40
2018,10,20,04,46,7.40
2018,10,20,04,47,7.40
2018,10,20,04,48,7.40
2018,10,20,04,49,7.40
2018,10,20,04,50,7.50
2018,10,20,04,51,7.50
2018,10,20,04,52,7.50
2018,10,20,04,53,7.50
2018,10,20,04,54,7.50
2018,10,20,04,55,7.50
2018,10,20,04,56,7.50
2018,10,20,04,57,7.50
2018,10,20,04,58,7.60
2018,10,20,04,59,7.60
2018,10,20,05,00,7.60
2018,10,20,05,01,7.60
2018,10,20,05,02,7.60
2018,10,20,05,03,7.60
2018,10,20,05,04,7.60
2018,10,20,05,05,7.60
2018,10,20,05,06,7.70
2018,10,20,05,07,7.70
2018,10,20,05,08,7.80
2018,10,20,05,09,7.80
2018,10,20,05,10,7.80
2018,10,20,05,11,7.90
2018,10,20,05,12,7.90
2018,10,20,05,13,8.00
2018,10,20,05,14,8.00
2018,10,20,05,15,8.10
2018,10,20,05,16,8.10
2018,10,20,05,17,8.10
2018,10,20,05,18,8.10
2018,10,20,05,19,8.10
2018,10,20,05,20,8.20
2018,10,20,05,21,8.20
2018,10,20,05,22,8.20
2018,10,20,05,23,8.20
2018,10,20,05,24,8.20
2018,10,20,05,25,8.20
2018,10,20,05,26,8.20
2018,10,20,05,27,8.20
2018,10,20,05,28,8.20
2018,10,20,05,29,8.20
2018,10,20,05,30,8.20
2018,10,20,05,31,8.20
2018,10,20,05,32,8.20
2018,10,20,05,33,8.10
2018,10,20,05,34,8.10
2018,10,20,05,35,8.10
2018,10,20,05,36,8.10
2018,10,20,05,37,8.10
2018,10,20,05,38,8.10
2018,10,20,05,39,8.10
2018,10,20,05,40,8.10
2018,10,20,05,41,8.10
2018,10,20,05,42,8.10
2018,10,20,05,43,8.10
2018,10,20,05,44,8.20
2018,10,20,05,45,8.20
2018,10,20,05,46,8.20
2018,10,20,05,47,8.20
2018,10,20,05,48,8.20
2018,10,20,05,49,8.30
2018,10,20,05,50,8.30
2018,10,20,05,51,8.30
2018,10,20,05,52,8.30
2018,10,20,05,53,8.30
2018,10,20,05,54,8.30
2018,10,20,05,55,8.30
2018,10,20,05,56,8.40
2018,10,20,05,57,8.40
2018,10,20,05,58,8.40
2018,10,20,05,59,8.40
2018,10,20,06,00,8.40
2018,10,20,06,01,8.50
2018,10,20,06,02,8.50
2018,10,20,06,03,8.50
2018,10,20,06,04,8.50
2018,10,20,06,05,8.50
2018,10,20,06,06,8.50
2018,10,20,06,07,8.50
2018,10,20,06,08,8.40
2018,10,20,06,09,8.40
2018,10,20,06,10,8.40
2018,10,20,06,11,8.40
2018,10,20,06,12,8.40
2018,10,20,06,13,8.40
2018,10,20,06,14,8.40
2018,10,20,06,15,8.30
2018,10,20,06,16,8.30
2018,10,20,06,17,8.30
2018,10,20,06,18,8.30
2018,10,20,06,19,8.30
2018,10,20,06,20,8.20
2018,10,20,06,21,8.20
2018,10,20,06,22,8.20
2018,10,20,06,23,8.20
2018,10,20,06,24,8.20
2018,10,20,06,25,8.10
2018,10,20,06,26,8.10
2018,10,20,06,27,8.00
2018,10,20,06,28,8.00
2018,10,20,06,29,7.90
2018,10,20,06,30,7.90
2018,10,20,06,31,7.80
2018,10,20,06,32,7.80
2018,10,20,06,33,7.80
2018,10,20,06,34,7.70
2018,10,20,06,35,7.70
2018,10,20,06,36,7.60
2018,10,20,06,37,7.60
2018,10,20,06,38,7.60
2018,10,20,06,39,7.60
2018,10,20,06,40,7.60
2018,10,20,06,41,7.60
2018,10,20,06,42,7.60
2018,10,20,06,43,7.60
2018,10,20,06,44,7.60
2018,10,20,06,45,7.60
2018,10,20,06,46,7.60
2018,10,20,06,47,7.60
2018,10,20,06,48,7.70
2018,10,20,06,49,7.70
2018,10,20,06,50,7.70
2018,10,20,06,51,7.70
2018,10,20,06,52,7.70
2018,10,20,06,53,7.70
2018,10,20,06,54,7.70
2018,10,20,06,55,7.70
2018,10,20,06,56,7.70
2018,10,20,06,57,7.70
2018,10,20,06,58,7.70
2018,10,20,06,59,7.70
2018,10,20,07,00,7.80
2018,10,20,07,01,7.80
2018,10,20,07,02,7.80
2018,10,20,07,03,7.80
2018,10,20,07,04,7.80
2018,10,20,07,05,7.80
2018,10,20,07,06,7.90
2018,10,20,07,07,7.90
2018,10,20,07,08,7.90
2018,10,20,07,09,7.90
2018,10,20,07,10,7.90
2018,10,20,07,11,7.90
2018,10,20,07,12,7.90
2018,10,20,07,13,8.00
2018,10,20,07,14,8.00
2018,10,20,07,15,8.00
2018,10,20,07,16,8.00
2018,10,20,07,17,7.90
2018,10,20,07,18,7.90
2018,10,20,07,19,7.90
2018,10,20,07,20,7.90
2018,10,20,07,21,7.90
2018,10,20,07,22,7.90
2018,10,20,07,23,7.90
2018,10,20,07,24,7.90
2018,10,20,07,25,7.90
2018,10,20,07,26,7.90
2018,10,20,08,33,8.40
2018,10,20,08,34,8.40
2018,10,20,08,35,8.40
2018,10,20,08,36,8.40
2018,10,20,08,37,8.40
2018,10,20,08,38,8.50
2018,10,20,08,39,8.40
2018,10,20,08,40,8.50
2018,10,20,08,41,8.50
2018,10,20,08,42,8.50
2018,10,20,08,43,8.50
2018,10,20,08,44,8.50
2018,10,20,08,45,8.50
2018,10,20,08,46,8.50
2018,10,20,08,47,8.50
2018,10,20,08,48,8.50
2018,10,20,08,49,8.50
2018,10,20,08,50,8.50
2018,10,20,08,51,8.50
2018,10,20,08,52,8.50
2018,10,20,08,53,8.50
2018,10,20,08,54,8.50
2018,10,20,08,55,8.60
2018,10,20,08,56,8.60
2018,10,20,08,57,8.60
2018,10,20,08,58,8.60
2018,10,20,08,59,8.60
2018,10,20,09,00,8.60
2018,10,20,09,01,8.60
2018,10,20,09,02,8.60
2018,10,20,09,03,8.60
2018,10,20,09,04,8.60
2018,10,20,09,05,8.60
2018,10,20,09,06,8.70
2018,10,20,09,07,8.70
2018,10,20,09,08,8.70
2018,10,20,09,09,8.70
2018,10,20,09,10,8.70
2018,10,20,09,11,8.70
2018,10,20,09,12,8.70
2018,10,20,09,13,8.70
2018,10,20,09,14,8.80
2018,10,20,09,15,8.80
2018,10,20,09,16,8.80
2018,10,20,09,17,8.80
2018,10,20,09,18,8.80
2018,10,20,09,19,8.80
2018,10,20,09,20,8.80
2018,10,20,09,21,8.80
2018,10,20,09,22,8.80
2018,10,20,09,23,8.80
2018,10,20,09,24,8.80
2018,10,20,09,25,8.90
2018,10,20,09,26,8.90
2018,10,20,09,27,8.90
2018,10,20,09,28,8.90
2018,10,20,09,29,8.90
2018,10,20,09,30,8.90
2018,10,20,09,31,8.90
2018,10,20,09,32,8.90
2018,10,20,09,33,8.90
2018,10,20,09,34,8.90
2018,10,20,09,35,8.90
2018,10,20,09,36,9.00
2018,10,20,09,37,9.00
2018,10,20,09,38,9.00
2018,10,20,09,39,9.00
2018,10,20,09,40,9.00
2018,10,20,09,41,9.00
2018,10,20,09,42,9.00
2018,10,20,09,43,9.00
2018,10,20,09,44,9.10
2018,10,20,09,45,9.10
2018,10,20,09,46,9.10
2018,10,20,09,47,9.10
2018,10,20,09,48,9.10
2018,10,20,09,49,9.10
2018,10,20,09,50,9.10
2018,10,20,09,51,9.10
2018,10,20,09,52,9.10
2018,10,20,09,53,9.10
2018,10,20,09,54,9.10
2018,10,20,09,55,9.10
2018,10,20,09,56,9.20
2018,10,20,09,57,9.10
2018,10,20,09,58,9.20
2018,10,20,09,59,9.20
2018,10,20,10,00,9.20
2018,10,20,10,01,9.20
2018,10,20,10,02,9.20
2018,10,20,10,03,9.20
2018,10,20,10,04,9.20
2018,10,20,10,05,9.20
2018,10,20,10,06,9.20
2018,10,20,10,07,9.30
2018,10,20,10,08,9.30
2018,10,20,10,09,9.30
2018,10,20,10,10,9.30
2018,10,20,10,11,9.30
2018,10,20,10,12,9.30
2018,10,20,10,13,9.30
2018,10,20,10,14,9.30
2018,10,20,10,15,9.30
2018,10,20,10,16,9.30
2018,10,20,10,17,9.30
2018,10,20,10,18,9.30
2018,10,20,10,19,9.30
2018,10,20,10,20,9.30
2018,10,20,10,21,9.30
2018,10,20,10,22,9.30
2018,10,20,10,23,9.30
2018,10,20,10,24,9.40
2018,10,20,10,25,9.40
2018,10,20,10,26,9.40
2018,10,20,10,27,9.40
2018,10,20,10,28,9.40
2018,10,20,10,29,9.40
2018,10,20,10,30,9.40
2018,10,20,10,31,9.40
2018,10,20,10,32,9.40
2018,10,20,10,33,9.40
2018,10,20,10,34,9.40
2018,10,20,10,35,9.40
2018,10,20,10,36,9.40
2018,10,20,10,37,9.50
2018,10,20,10,38,9.50
2018,10,20,10,39,9.50
2018,10,20,10,40,9.50
2018,10,20,10,41,9.50
2018,10,20,10,42,9.50
2018,10,20,10,43,9.50
2018,10,20,10,44,9.40
2018,10,20,10,45,9.40
2018,10,20,10,46,9.40
2018,10,20,10,47,9.40
2018,10,20,10,48,9.40
2018,10,20,10,49,9.40
2018,10,20,10,50,9.40
2018,10,20,10,51,9.50
2018,10,20,10,52,9.50
2018,10,20,10,53,9.50
2018,10,20,10,54,9.60
2018,10,20,10,55,9.60
2018,10,20,10,56,9.60
2018,10,20,10,57,9.60
2018,10,20,10,58,9.60
2018,10,20,10,59,9.60
2018,10,20,11,00,9.60
2018,10,20,11,01,9.60
2018,10,20,11,02,9.60
2018,10,20,11,03,9.60
2018,10,20,11,04,9.60
2018,10,20,11,05,9.70
2018,10,20,11,06,9.70
2018,10,20,11,07,9.70
2018,10,20,11,08,9.70
2018,10,20,11,09,9.70
2018,10,20,11,10,9.70
2018,10,20,11,11,9.60
2018,10,20,11,12,9.60
2018,10,20,11,13,9.60
2018,10,20,11,14,9.60
2018,10,20,11,15,9.60
2018,10,20,11,16,9.60
2018,10,20,11,17,9.60
2018,10,20,11,18,9.60
2018,10,20,11,19,9.60
2018,10,20,11,20,9.60
2018,10,20,11,21,9.60
2018,10,20,11,22,9.60
2018,10,20,11,23,9.60
2018,10,20,11,24,9.60
2018,10,20,11,25,9.60
2018,10,20,11,26,9.60
2018,10,20,11,27,9.70
2018,10,20,11,28,9.70
2018,10,20,11,29,9.70
2018,10,20,11,30,9.70
2018,10,20,11,31,9.70
2018,10,20,11,32,9.70
2018,10,20,11,33,9.60
2018,10,20,11,34,9.70
2018,10,20,11,35,9.70
2018,10,20,11,36,9.70
2018,10,20,11,37,9.70
2018,10,20,11,38,9.70
2018,10,20,11,39,9.70
2018,10,20,11,40,9.80
2018,10,20,11,41,9.80
2018,10,20,11,42,9.80
2018,10,20,11,43,9.80
2018,10,20,11,44,9.90
2018,10,20,11,45,9.90
2018,10,20,11,46,9.90
2018,10,20,11,47,9.90
2018,10,20,11,48,9.90
2018,10,20,11,49,9.90
2018,10,20,11,50,9.90
2018,10,20,11,51,9.90
2018,10,20,11,52,9.90
2018,10,20,11,53,9.90
2018,10,20,11,54,9.90
2018,10,20,11,55,9.90
2018,10,20,11,56,9.90
2018,10,20,11,57,10.00
2018,10,20,11,58,10.00
2018,10,20,11,59,10.00
2018,10,20,12,00,10.00
2018,10,20,12,01,10.00
2018,10,20,12,02,10.00
2018,10,20,12,03,10.00
2018,10,20,12,04,10.00
2018,10,20,12,05,10.00
2018,10,20,12,06,10.10
2018,10,20,12,07,10.10
2018,10,20,12,08,10.10
2018,10,20,12,09,10.10
2018,10,20,12,10,10.20
2018,10,20,12,11,10.20
2018,10,20,12,12,10.20
2018,10,20,12,13,10.20
2018,10,20,12,14,10.20
2018,10,20,12,15,10.20
2018,10,20,12,16,10.20
2018,10,20,12,17,10.20
2018,10,20,12,18,10.20
2018,10,20,12,19,10.20
2018,10,20,12,20,10.20
2018,10,20,12,21,10.20
2018,10,20,12,22,10.20
2018,10,20,12,23,10.20
2018,10,20,12,24,10.20
2018,10,20,12,25,10.30
2018,10,20,12,26,10.30
2018,10,20,12,27,10.30
2018,10,20,12,28,10.30
2018,10,20,12,29,10.30
2018,10,20,12,30,10.30
2018,10,20,12,31,10.40
2018,10,20,12,32,10.40
2018,10,20,12,33,10.40
2018,10,20,12,34,10.40
2018,10,20,12,35,10.50
2018,10,20,12,36,10.50
2018,10,20,12,37,10.50
2018,10,20,12,38,10.60
2018,10,20,12,39,10.60
2018,10,20,12,40,10.60
2018,10,20,12,41,10.60
2018,10,20,12,42,10.70
2018,10,20,12,43,10.70
2018,10,20,12,44,10.80
2018,10,20,12,45,10.80
2018,10,20,12,46,10.80
2018,10,20,12,47,10.80
2018,10,20,12,48,10.80
2018,10,20,12,49,10.80
2018,10,20,12,50,10.80
2018,10,20,12,51,10.80
2018,10,20,12,52,10.80
2018,10,20,12,53,10.90
2018,10,20,12,54,10.90
2018,10,20,12,55,10.90
2018,10,20,12,56,10.90
2018,10,20,12,57,11.00
2018,10,20,12,58,11.00
2018,10,20,12,59,11.10
2018,10,20,13,00,11.10
2018,10,20,13,01,11.20
2018,10,20,13,02,11.20
2018,10,20,13,03,11.20
2018,10,20,13,04,11.20
2018,10,20,13,05,11.20
2018,10,20,13,06,11.20
2018,10,20,13,07,11.30
2018,10,20,13,08,11.30
2018,10,20,13,09,11.30
2018,10,20,13,10,11.30
2018,10,20,13,11,11.40
2018,10,20,13,12,11.40
2018,10,20,13,13,11.40
2018,10,20,13,14,11.50
2018,10,20,13,15,11.50
2018,10,20,13,16,11.50
2018,10,20,13,17,11.60
2018,10,20,13,18,11.60
2018,10,20,13,19,11.70
2018,10,20,13,20,11.80
2018,10,20,13,21,11.80
2018,10,20,13,22,11.80
2018,10,20,13,23,11.90
2018,10,20,13,24,11.90
2018,10,20,13,25,11.90
2018,10,20,13,26,11.90
2018,10,20,13,27,12.00
2018,10,20,13,28,12.00
2018,10,20,13,29,12.00
2018,10,20,13,30,12.10
2018,10,20,13,31,12.10
2018,10,20,13,32,12.10
2018,10,20,13,33,12.20
2018,10,20,13,34,12.20
2018,10,20,13,35,12.30
2018,10,20,13,36,12.30
2018,10,20,13,37,12.30
2018,10,20,13,38,12.30
2018,10,20,13,39,12.40
2018,10,20,13,40,12.40
2018,10,20,13,41,12.40
2018,10,20,13,42,12.40
2018,10,20,13,43,12.40
2018,10,20,13,44,12.50
2018,10,20,13,45,12.50
2018,10,20,13,46,12.50
2018,10,20,13,47,12.50
2018,10,20,13,48,12.50
2018,10,20,13,49,12.50
2018,10,20,13,50,12.50
2018,10,20,13,51,12.60
2018,10,20,13,52,12.60
2018,10,20,13,53,12.60
2018,10,20,13,54,12.70
2018,10,20,13,55,12.70
2018,10,20,13,56,12.70
2018,10,20,13,57,12.70
2018,10,20,13,58,12.80
2018,10,20,13,59,12.80
2018,10,20,14,00,12.80
2018,10,20,14,01,12.80
2018,10,20,14,02,12.90
2018,10,20,14,03,12.90
2018,10,20,14,04,12.90
2018,10,20,14,05,12.90
2018,10,20,14,06,12.90
2018,10,20,14,07,13.00
2018,10,20,14,08,13.00
2018,10,20,14,09,13.00
2018,10,20,14,10,13.10
2018,10,20,14,11,13.10
2018,10,20,14,12,13.10
2018,10,20,14,13,13.10
2018,10,20,14,14,13.10
2018,10,20,14,15,13.10
2018,10,20,14,16,13.20
2018,10,20,14,17,13.20
2018,10,20,14,18,13.20
2018,10,20,14,19,13.20
2018,10,20,14,20,13.20
2018,10,20,14,21,13.20
2018,10,20,14,22,13.20
2018,10,20,14,23,13.20
2018,10,20,14,24,13.20
2018,10,20,14,25,13.20
2018,10,20,14,26,13.20
2018,10,20,14,27,13.20
2018,10,20,14,28,13.20
2018,10,20,14,29,13.20
2018,10,20,14,30,13.20
2018,10,20,14,31,13.30
2018,10,20,14,32,13.30
2018,10,20,14,33,13.30
2018,10,20,14,34,13.30
2018,10,20,14,35,13.40
2018,10,20,14,36,13.40
2018,10,20,14,37,13.40
2018,10,20,14,38,13.40
2018,10,20,14,39,13.40
2018,10,20,14,40,13.40
2018,10,20,14,41,13.40
2018,10,20,14,42,13.40
2018,10,20,14,43,13.40
2018,10,20,14,44,13.40
2018,10,20,14,45,13.40
2018,10,20,14,46,13.40
2018,10,20,14,47,13.50
2018,10,20,14,48,13.50
2018,10,20,14,49,13.60
2018,10,20,14,50,13.60
2018,10,20,14,51,13.60
2018,10,20,14,52,13.70
2018,10,20,14,53,13.70
2018,10,20,14,54,13.80
2018,10,20,14,55,13.80
2018,10,20,14,56,13.80
2018,10,20,14,57,13.80
2018,10,20,14,58,13.80
2018,10,20,14,59,13.80
2018,10,20,15,00,13.90
2018,10,20,15,01,13.90
2018,10,20,15,02,13.90
2018,10,20,15,03,13.90
2018,10,20,15,04,13.90
2018,10,20,15,05,14.00
2018,10,20,15,06,14.00
2018,10,20,15,07,14.00
2018,10,20,15,08,14.10
2018,10,20,15,09,14.10
2018,10,20,15,10,14.10
2018,10,20,15,11,14.10
2018,10,20,15,12,14.10
2018,10,20,15,13,14.10
2018,10,20,15,14,14.00
2018,10,20,15,15,14.00
2018,10,20,15,16,13.90
2018,10,20,15,17,13.90
2018,10,20,15,18,13.90
2018,10,20,15,19,13.80
2018,10,20,15,20,13.80
2018,10,20,15,21,13.80
2018,10,20,15,22,13.70
2018,10,20,15,23,13.70
2018,10,20,15,24,13.60
2018,10,20,15,25,13.60
2018,10,20,15,26,13.60
2018,10,20,15,27,13.60
2018,10,20,15,28,13.50
2018,10,20,15,29,13.50
2018,10,20,15,30,13.50
2018,10,20,15,31,13.50
2018,10,20,15,32,13.50
2018,10,20,15,33,13.50
2018,10,20,15,34,13.50
2018,10,20,15,35,13.60
2018,10,20,15,36,13.60
2018,10,20,15,37,13.60
2018,10,20,15,38,13.60
2018,10,20,15,39,13.60
2018,10,20,15,40,13.60
2018,10,20,15,41,13.60
2018,10,20,15,42,13.60
2018,10,20,15,43,13.60
2018,10,20,15,44,13.70
2018,10,20,15,45,13.70
2018,10,20,15,46,13.70
2018,10,20,15,47,13.70
2018,10,20,15,48,13.70
2018,10,20,15,49,13.70
2018,10,20,15,50,13.70
2018,10,20,15,51,13.70
2018,10,20,15,52,13.70
2018,10,20,15,53,13.70
2018,10,20,15,54,13.70
2018,10,20,15,55,13.70
2018,10,20,15,56,13.70
2018,10,20,15,57,13.70
2018,10,20,15,58,13.70
2018,10,20,15,59,13.70
2018,10,20,16,00,13.70
2018,10,20,16,01,13.60
2018,10,20,16,02,13.60
2018,10,20,16,03,13.60
2018,10,20,16,04,13.60
2018,10,20,16,05,13.60
2018,10,20,16,06,13.60
2018,10,20,16,07,13.60
2018,10,20,16,08,13.60
2018,10,20,16,09,13.60
2018,10,20,16,10,13.60
2018,10,20,16,11,13.60
2018,10,20,16,12,13.60
2018,10,20,16,13,13.60
2018,10,20,16,14,13.60
2018,10,20,16,15,13.60
2018,10,20,16,16,13.70
2018,10,20,16,17,13.70
2018,10,20,16,18,13.70
2018,10,20,16,19,13.70
2018,10,20,16,20,13.70
2018,10,20,16,21,13.70
2018,10,20,16,22,13.70
2018,10,20,16,23,13.70
2018,10,20,16,24,13.70
2018,10,20,16,25,13.80
2018,10,20,16,26,13.80
2018,10,20,16,27,13.80
2018,10,20,16,28,13.80
2018,10,20,16,29,13.90
2018,10,20,16,30,13.90
2018,10,20,16,31,13.90
2018,10,20,16,32,13.90
2018,10,20,16,33,13.90
2018,10,20,16,34,13.90
2018,10,20,16,35,13.90
2018,10,20,16,36,14.00
2018,10,20,16,37,14.00
2018,10,20,16,38,14.00
2018,10,20,16,39,14.10
2018,10,20,16,40,14.10
2018,10,20,16,41,14.10
2018,10,20,16,42,14.10
2018,10,20,16,43,14.10
2018,10,20,16,44,14.10
2018,10,20,16,45,14.00
2018,10,20,16,46,14.00
2018,10,20,16,47,14.00
2018,10,20,16,48,14.00
2018,10,20,16,49,13.90
2018,10,20,16,50,13.90
2018,10,20,16,51,13.90
2018,10,20,16,52,13.90
2018,10,20,16,53,13.90
2018,10,20,16,54,13.90
2018,10,20,16,55,13.90
2018,10,20,16,56,13.90
2018,10,20,16,57,13.80
2018,10,20,16,58,13.80
2018,10,20,16,59,13.80
2018,10,20,17,00,13.80
2018,10,20,17,01,13.80
2018,10,20,17,02,13.80
2018,10,20,17,03,13.80
2018,10,20,17,04,13.80
2018,10,20,17,05,13.80
2018,10,20,17,06,13.80
2018,10,20,17,07,13.80
2018,10,20,17,08,13.80
2018,10,20,17,09,13.80
2018,10,20,17,10,13.70
2018,10,20,17,11,13.70
2018,10,20,17,12,13.70
2018,10,20,17,13,13.70
2018,10,20,17,14,13.70
2018,10,20,17,15,13.70
2018,10,20,17,16,13.70
2018,10,20,17,17,13.70
2018,10,20,17,18,13.70
2018,10,20,17,19,13.70
2018,10,20,17,20,13.70
2018,10,20,17,21,13.70
2018,10,20,17,22,13.60
2018,10,20,17,23,13.60
2018,10,20,17,24,13.60
2018,10,20,17,25,13.60
2018,10,20,17,26,13.60
2018,10,20,17,27,13.60
2018,10,20,17,28,13.50
2018,10,20,17,29,13.50
2018,10,20,17,30,13.50
2018,10,20,17,31,13.40
2018,10,20,17,32,13.40
2018,10,20,17,33,13.40
2018,10,20,17,34,13.40
2018,10,20,17,35,13.40
2018,10,20,17,36,13.40
2018,10,20,17,37,13.30
2018,10,20,17,38,13.30
2018,10,20,17,39,13.30
2018,10,20,17,40,13.30
2018,10,20,17,41,13.30
2018,10,20,17,42,13.30
2018,10,20,17,43,13.30
2018,10,20,17,44,13.30
2018,10,20,17,45,13.30
2018,10,20,17,46,13.20
2018,10,20,17,47,13.20
2018,10,20,17,48,13.20
2018,10,20,17,49,13.20
2018,10,20,17,50,13.20
2018,10,20,17,51,13.20
2018,10,20,17,52,13.20
2018,10,20,17,53,13.20
2018,10,20,17,54,13.10
2018,10,20,17,55,13.10
2018,10,20,17,56,13.10
2018,10,20,17,57,13.10
2018,10,20,17,58,13.10
2018,10,20,17,59,13.10
2018,10,20,18,00,13.10
2018,10,20,18,01,13.00
2018,10,20,18,02,13.00
2018,10,20,18,03,13.00
2018,10,20,18,04,13.00
2018,10,20,18,05,13.00
2018,10,20,18,06,12.90
2018,10,20,18,07,12.90
2018,10,20,18,08,12.90
2018,10,20,18,09,12.90
2018,10,20,18,10,12.90
2018,10,20,18,11,12.90
2018,10,20,18,12,12.90
2018,10,20,18,13,12.90
2018,10,20,18,14,12.80
2018,10,20,18,15,12.80
2018,10,20,18,16,12.80
2018,10,20,18,17,12.80
2018,10,20,18,18,12.80
2018,10,20,18,19,12.80
2018,10,20,18,20,12.70
2018,10,20,18,21,12.70
2018,10,20,18,22,12.70
2018,10,20,18,23,12.70
2018,10,20,18,24,12.70
2018,10,20,18,25,12.60
2018,10,20,18,26,12.60
2018,10,20,18,27,12.60
2018,10,20,18,28,12.50
2018,10,20,18,29,12.50
2018,10,20,18,30,12.50
2018,10,20,18,31,12.40
2018,10,20,18,32,12.40
2018,10,20,18,33,12.40
2018,10,20,18,34,12.40
2018,10,20,18,35,12.30
2018,10,20,18,36,12.30
2018,10,20,18,37,12.30
2018,10,20,18,38,12.20
2018,10,20,18,39,12.20
2018,10,20,18,40,12.20
2018,10,20,18,41,12.10
2018,10,20,18,42,12.10
2018,10,20,18,43,12.10
2018,10,20,18,44,12.00
2018,10,20,18,45,12.00
2018,10,20,18,46,11.90
2018,10,20,18,47,11.90
2018,10,20,18,48,11.80
2018,10,20,18,49,11.80
2018,10,20,18,50,11.70
2018,10,20,18,51,11.70
2018,10,20,18,52,11.70
2018,10,20,18,53,11.60